Погода Нижняя Пеша

Погода Нижняя Пеша : погода сейчас, прогноз погоды и архив. Всё, что Вы хотите узнать о погоде Нижняя Пеша!

Поиск расширенной информации на нашем сайте:

Другие новости

Новости СМИ2

Главная страница сайта

Новости сайта

03.07.2017

Напоминаем, что на нашем специализированном сайте Метеоцентр.Азия вы можете получить высокодетализированные автоматические прогнозы погоды по пунктам России, СНГ и мира в авиационном формате (включающие направление и скорость ветра, видимость, явления погоды, количество и форму облачности, нижнюю и верхнюю границу облачности).


Погода Нижняя Пеша - сегодня

Время (UTC), дата Ветер
(°,м/с) 
Видим.   Явления Облачность Т
(°С)
Тd
(°С)
f(%) Тe
(°С)
Pmin
(гПа)
dP
(гПа)
Po
(мм)
O2
(г/м3)
Тmin Tmax R s Состояние
почвы
18 12.12.17 160 (Ю) 6{11}  10 км    10/10 180 м 
[St]
-4.9 -6.2 91 -9  1016  -1.1  761  313           
21 12.12.17 150 (ЮВ) 10 км    10/0 средняя 
[Ac und]
-4.9 -6.6 88 -9  1014.5  -1.5  760  312           
00 13.12.17 150 (ЮВ) 7{11}  10 км  позёмок  5/0 средняя 
[Ac trans]
-4.7 -6.4 88 -10  1012.5  -2  758  312           
03 13.12.17 160 (Ю) 11{18}  10 км  позёмок  10/10 420 м 
[Sc]
-4.7 -6.7 86 -11  1007.5  -5  754  310  -5.9      35  неравномерный
сухой снег
100% 
06 13.12.17 150 (ЮВ) 11{17}  10 км  позёмок  10/10 480 м 
[Sc]
-4.5 -8 76 -11  1004.4  -3.1  752  309           
09 13.12.17 150 (ЮВ) 10{17}  20000 м  позёмок  10/10 450 м 
[Sc]
-3.8 -6.7 80 -10  1002.2  -2.2  750  307           
12 13.12.17 160 (Ю) 11{18}  10 км  позёмок  10/10 660 м кучево-дожд. 
[Cb cap]
-3.3 -4.4 92 -9  997.4  -4.8  747  305           
15 13.12.17 160 (Ю) 9{19}  10 км  позёмок  10/10 270 м 
[St]
-2.1 -3.9 87 -7  994.6  -2.8  745  303    -2.1  0.0     
18 13.12.17 160 (Ю) 9{17}  10 км  снег{ливн. осадки}  10/10 540 м кучево-дожд. 
[Cb cap]
-0.6 -2.1 90 -5  991.7  -2.9  743  300           
21 13.12.17 170 (Ю) 7{16}  10 км  позёмок  10/10 540 м 
[Sc]
+0.4 -1.3 88 -3  991.1  -0.6  742  299           
00 14.12.17 210 (ЮЗ) 7{15}  10 км  снег{ливн. осадки}  6/0 средняя 
[Ac trans]
-0.8 -3 85 -5  992.6  1.5  743  301           
03 14.12.17 210 (ЮЗ) 6{12}  10 км  позёмок  10/10 1320 м 
[Sc]
-1.6 -5 78 -5  995.3  2.7  745  303  -2.1    0.2  36  неравномерный
сухой снег
100% 
06 14.12.17 190 (Ю) 6{14}  10 км  позёмок  10/8 750 м средняя 
[Sc|Ac As]
-2.2 -5.8 76 -6  997  1.7  746  304           
09 14.12.17 190 (Ю) 6{14}  20000 м  позёмок  10/10 720 м 
[Sc]
-0.9 -3.4 83 -5  998.3  1.1  747  303           
12 14.12.17 190 (Ю) 7{16}  10 км  позёмок  10/10 800 м 
[Sc]
-0.2 -2.6 84 -4  1000.2  1.9  749  302           
15 14.12.17 190 (Ю) 7{16}  10 км  позёмок  10/10 630 м 
[Sc]
+0.1 -1.3 90 -4  1002.1  1.9  750  302    +0.1       
18 14.12.17 200 (Ю) 7{15}  10 км  позёмок  10/10 1320 м 
[Sc]
+0.4 -1.5 87 -3  1004.1  752  303           
21 14.12.17 200 (Ю) 7{15}  10 км  позёмок  10/10 420 м 
[St]
-0.7 -2.2 90 -5  1006.1  753  305           
00 15.12.17 190 (Ю) 6{14}  10 км  позёмок  10/10 420 м 
[St]
-1.1 -2.7 89 -5  1007.3  1.2  754  305           
03 15.12.17 180 (Ю) 6{12}  10 км  позёмок  10/10 480 м 
[Sc]
-2 -3.8 87 -6  1008  0.7  755  307  -2      34  неравномерный
сухой снег
100% 
06 15.12.17 200 (Ю) 6{10}  10 км    10/10 400 м 
[St]
-3.2 -3.9 95 -7  1009.4  1.4  756  309           
09 15.12.17 190 (Ю) 20000 м    10/10 360 м 
[St]
-3.8 -4 99 -7  1010  757  310           
12 15.12.17 180 (Ю) 10 км    10/10 270 м 
[St]
-5.2 -6.2 93 -8  1011.4  757  312           
15 15.12.17 160 (Ю) 10 км    10/10 240 м 
[St]
-4.9 -7 85 -9  1011.5  0.1  757  312    -2       
18 15.12.17 120 (ЮВ) 10 км    10/10 330 м 
[St]
-5.1 -7.2 85 -7  1010  -1.5  756  311           
Время (UTC), дата Ветер
(°,м/с) 
Видим.   Явления Облачность Т
(°С)
Тd
(°С)
f(%) Тe
(°С)
Pmin
(гПа)
dP
(гПа)
Po
(мм)
O2
(г/м3)
Тmin Tmax R s Состояние
почвы

Для получения пояснительной информации подведите курсор к названию столбца.

ПОГОДА Нижняя Пеша - архив

Всё, что Вы хотите узнать о погоде Нижняя Пеша - удобно и подробно!

Выберите нужную дату (начиная с 1 января 2015* года) и нажмите кнопку "Найти".
Будут отображены архивные сводки погоды по пункту Нижняя Пеша, начиная с указанной даты.


Отображать данные в формате CSV (для использования в таблицах Excel)


Внимание! Наш архив погоды предназначен исключительно для личного некоммерческого использования в познавательных целях. Если Вам необходимы официальные справки о состоянии погоды (для производственных, юридических, коммерческих и т.п. целей), обращайтесь в органы Росгидромета.

*Примечание: данная дата относится к архиву по метеостанциям СССР (Россия, СНГ, Балтия).
Архив по метеостанциям Зарубежной Европы и Азии (кроме Китая) хранится 10 дней, по другим регионам земного шара (Китай, Африка, Америка, Австралия, Океания) - 1 день.

Нижняя Пеша - район местоположения метеостанции


Название, широта, долгота, высота метеостанции:
Нижняя Пеша 66.8°ш. 47.8°д. 9 м над ур. моря [Российская Федерация]

Дополнительная информация

В oтличие oт бoльшинства пoгoдных сайтoв мы публикуем пoдрoбную метеoинфoрмацию в детальнoм прoфессиoнальнoм фoрмате.

Характеристики температуры и влажнoсти вoздуха измеряются на высoте 2 м в тени вдали oт зданий и деревьев.
Скoрoсть ветра измеряется на высoте 10 м (на урoвне рoста челoвека скoрoсть ветра ниже в 1.5-2 раза). Если метеoстанция нахoдится в гoрoде или в лесу, тo скoрoсть ветра занижена на 2-4 м/с пo сравнению с oткрытым местoм. Скoрoсть ветра над акватoриями крупных рек и oзёр, а также на вершинах хoлмoв на 2-5 м/с выше, чем в oбычных услoвиях.
Атмoсфернoе давление в разных тoчках местнoсти мoжет значительнo oтличаться oт давления на метеoстанции, в зависимoсти oт услoвий рельефа (при пoдъёме на 10 м давление пoнижается примернo на 1 мм рт.ст.).